EST,Max TemperatureF,Mean TemperatureF,Min TemperatureF,Max Dew PointF,MeanDew PointF,Min DewpointF,Max Humidity, Mean Humidity, Min Humidity, Max Sea Level PressureIn, Mean Sea Level PressureIn, Min Sea Level PressureIn, Max VisibilityMiles, Mean VisibilityMiles, Min VisibilityMiles, Max Wind SpeedMPH, Mean Wind SpeedMPH, Max Gust SpeedMPH,PrecipitationIn, CloudCover, Events, WindDirDegrees
2013-2-1,19,16,14,14,11,5,93,79,62,30.27,30.18,30.03,15,6,0,18,16,29,0.00,7,Snow,252
2013-2-2,24,19,14,21,17,9,93,83,63,30.13,30.00,29.95,3,2,1,16,12,,0.00,8,Snow,223
2013-2-3,21,20,19,18,14,5,93,76,50,29.97,29.90,29.85,10,6,2,17,14,22,0.00,8,Snow,269
2013-2-4,26,22,19,23,19,14,93,86,80,30.00,29.93,29.86,7,3,1,12,8,,0.00,8,Snow,216
2013-2-5,28,24,21,23,21,16,100,82,59,29.92,29.88,29.84,7,6,1,9,6,,0.00,8,Snow,223
2013-2-6,30,24,17,18,13,10,74,60,47,30.32,30.27,30.15,10,10,10,14,9,,0.00,2,,6
2013-2-7,53,40,26,23,20,16,74,53,30,30.27,30.07,29.89,10,9,7,17,10,21,0.00,5,,154
2013-2-8,41,34,26,32,26,21,93,83,70,30.22,29.96,29.73,10,5,1,22,16,36,0.00,8,Rain-Snow,308
2013-2-9,30,26,21,21,19,18,93,76,64,30.42,30.38,30.32,20,14,6,12,9,,0.00,4,Snow,37
2013-2-10,48,37,26,43,22,16,82,47,29,30.24,30.05,29.83,20,14,10,18,13,31,0.00,7,,164
2013-2-11,53,45,35,45,31,25,82,65,58,29.88,29.76,29.65,20,12,10,23,20,40,0.00,7,,256
2013-2-12,33,28,23,27,25,23,100,77,65,30.06,30.00,29.93,20,11,10,20,13,26,0.00,5,,264
2013-2-13,37,30,24,25,24,21,93,79,52,29.85,29.80,29.75,10,10,7,12,6,,0.00,5,,305
2013-2-14,41,36,32,34,31,28,87,77,65,29.85,29.81,29.77,10,7,5,17,13,29,0.00,8,,209
2013-2-15,33,30,28,28,23,16,87,73,59,30.09,30.04,29.96,10,8,2,16,11,,0.00,7,Snow,302
2013-2-16,28,26,23,21,17,9,93,70,43,30.03,29.99,29.95,20,11,0,14,8,,0.00,6,Snow,326
2013-2-17,21,18,12,16,10,3,86,70,49,30.23,30.14,30.03,20,13,6,16,12,21,0.00,5,Snow,314
2013-2-18,46,30,15,28,20,9,73,54,48,30.21,29.97,29.77,20,13,10,21,16,32,0.00,6,,171
2013-2-19,42,32,21,39,25,14,93,79,68,29.93,29.74,29.56,10,6,0,23,20,39,0.00,8,Rain-Snow,256
2013-2-20,23,21,19,16,13,9,86,69,59,30.19,30.12,30.00,10,6,0,23,17,34,0.00,8,Snow,296
2013-2-21,23,21,19,14,13,12,80,73,63,30.36,30.32,30.27,10,7,4,14,10,,0.00,7,Snow,9
2013-2-22,39,34,28,34,29,21,87,78,69,30.01,29.95,29.91,7,6,4,23,15,23,0.00,7,Rain,182
2013-2-23,37,34,30,30,26,23,87,75,65,29.94,29.92,29.89,15,11,7,16,11,23,0.00,8,,290
2013-2-24,33,30,28,28,25,21,87,77,64,30.13,30.05,29.95,20,10,3,18,15,21,0.00,7,Snow,282
2013-2-25,41,32,23,28,24,19,93,70,45,30.21,30.16,30.07,20,16,5,13,6,,0.00,1,,84
2013-2-26,39,36,33,36,31,23,87,77,56,29.95,29.70,29.52,15,7,3,21,16,39,0.00,8,Rain,126
2013-2-27,44,40,35,39,36,32,93,87,76,29.63,29.59,29.52,10,6,2,16,11,21,0.00,8,Rain,243
2013-2-28,35,34,32,32,31,28,93,88,81,29.87,29.69,29.58,10,6,0,16,13,,0.00,8,Snow,301